カタログに戻る

IRIDIUM 164

運用中通信PO
NORAD 43577·PAYLOAD·🇺🇸 United States

打ち上げ Jul 25, 2018 から Vandenberg Space Force Base

Loading…

次のパス (今後24時間)

TLE

最新Source: CelesTrak SupGP

元期: Sep 14, 2026, 22:08 UTC

1 43577C 18061J   26257.92256944 -.00002173  00000+0 -77687-3 0  2574
2 43577  86.4012  19.2391 0002078  95.6921  69.9693 14.34220671    16

AllMySatでIRIDIUM 164をリアルタイム追跡

Download on the App Store